Regional Weather Roundup
Issued by NWS Northern Indiana

Home | Current Version | Previous Version | Text Only | Print | Product List | Glossary On
Versions: 1 2 3 4 5 6 7 8 9 10 11 12 13 14 15 16 17 18 19 20 21 22 23 24 25 26 27 28 29 30 31 32 33 34 35 36 37 38 39 40 41 42 43 44 45 46 47 48 49 50
763
ASUS43 KIWX 281110
RWRIWX

KIWX WEATHER ROUNDUP
NATIONAL WEATHER SERVICE NORTHERN INDIANA
700 AM EDT WED JUN 28 2017

NOTE: "FAIR" INDICATES FEW OR NO CLOUDS BELOW 12,000 FEET WITH NO
SIGNIFICANT WEATHER AND/OR OBSTRUCTIONS TO VISIBILITY.

* THESE STATIONS ARE NOT UNDER NWS QUALITY CONTROL. THEY ALSO MAY NOT
  REPORT WEATHER SUCH AS PRECIPITATION OR FOG.

INZ001>027-281200-
NORTHERN INDIANA

CITY           SKY/WX    TMP DP  RH WIND       PRES   REMARKS
GARY*          PTCLDY    63  46  55 S10       30.03S
VALPARAISO     CLOUDY    58  49  72 S7        30.06S
MICHIGAN CITY* PTCLDY    61  46  59 S8        30.06S
LAPORTE*       CLOUDY    55  48  76 S5        30.08R
KNOX*          CLOUDY    55  39  54 S7        30.07R
SOUTH BEND     CLEAR     56  49  77 S7        30.08R
ELKHART*       CLEAR     55  48  76 S9        30.08
GOSHEN         CLEAR     56  46  69 S5        30.10R
MONTICELLO*    CLOUDY    58  49  70 SE5       30.07R
LOGANSPORT*    CLEAR     52  46  82 SE5       30.10R
ROCHESTER*     CLEAR     61  50  67 S5        30.10R
WARSAW*        CLEAR     55  46  71 CALM      30.10R
AUBURN*        CLEAR     52  48  87 CALM      30.11F
FORT WAYNE     PTCLDY    56  48  74 S3        30.12S
HUNTINGTON*    CLEAR     55  49  82 CALM      30.11R
PERU/GRISSOM   CLEAR     56  51  82 S7        30.09R

$$
INZ028>050-281200-
CENTRAL INDIANA

CITY           SKY/WX    TMP DP  RH WIND       PRES   REMARKS
LAFAYETTE      CLOUDY    53  50  89 CALM      30.08R
KOKOMO*        CLEAR     57  51  80 S7        30.11R
MUNCIE*        CLEAR     59  48  67 S6        30.12S
INDIANAPOLIS   MOCLDY    57  50  77 SE9       30.11R

$$
MIZ043>046-050>051-056>058-064>065-071>073-077>080-281200-
SOUTHWEST LOWER MICHIGAN

CITY           SKY/WX    TMP DP  RH WIND       PRES   REMARKS
BATTLE CREEK   CLEAR     55  47  74 S7        30.08R
BENTON HARBOR  CLEAR     58  47  66 SE6       30.05R
COLDWATER*     CLEAR     56  47  72 SW3       30.10R
HILLSDALE*     CLEAR     54  45  71 S6        30.11R
HOLLAND        CLEAR     57  47  69 S7        30.05R
GRAND RAPIDS   PTCLDY    56  48  74 S8        30.05R
KALAMAZOO      CLEAR     54  47  77 S7        30.08R HAZE
STURGIS*       CLEAR     53  47  80 CALM      30.09R
THREE RIVERS*  FAIR      52  47  84 CALM      30.10R

$$
OHZ001>008-015>018-024>025-281200-
NORTHWEST OHIO

CITY           SKY/WX    TMP DP  RH WIND       PRES   REMARKS
WAUSEON*       FAIR      52  46  82 CALM      30.12R
DEFIANCE       CLEAR     50  49  96 CALM      30.12R
FINDLAY        CLEAR     54  47  77 S5        30.13R
TOLEDO EXPRESS PTCLDY    49  49 100 CALM      30.12R
TOLEDO METCALF CLEAR     54  50  86 CALM      30.12R
LIMA           CLEAR     55  48  77 S7        30.14R

$$
AND FOR LAKE MICHIGAN COASTAL AND OPEN LAKE BUOY OBSERVATIONS

STATION/POSITION TEMP    WIND        PRES    VSBY  WAVE
                 AIR SEA DIR/SP/G                  HT/PER
                 (F)     (DEG/KT/KT) (MB)    (MI)  (FT/S)
CALUMET HARBOR    63     170/  9/ 12 1015.8F
MICHIGAN CITY     62     150/ 11/ 15   N/A
BURNS HARBOR      62     180/  7/ 13 1017.6R
SOUTH LAKE BUOY   63 61  200/ 16/ 17 1016.0R         2/ 4
4 MI NW BRIDGMAN  64 68  190/ 16/ 19 1017.6          2/ 3
MICHIGAN CITY     62 66  170/ 14/ 17   N/A           1/ 2

$$
&&




USA.gov is the U.S. government's official web portal to all federal, state and local government web resources and services.